Home > Weather > Schwäbisch Hall > Past weeks

Flag for Germany Past Weather in Schwäbisch Hall, Baden-Württemberg, Germany — Yesterday and Last 2 Weeks

Now
59 °F

Passing clouds.


Feels Like: 58 °F
Forecast: 51 / 67 °F
Wind: 7 mph from South

Location: Niederstetten

Current Time: May 31, 2016 at 9:49:56 AM

Latest Report: May 31, 2016 at 8:20 AM


Visibility: N/A

Pressure: 29.83 "Hg

Humidity: 77%

Dew Point: 52 °F

Location of Schwäbisch HallLocation

Past Weather in Schwäbisch Hall — Graph

°F

Schwäbisch Hall Temperature Yesterday

Maximum temperature yesterday: 64 °F (at 4:20 PM)
Minimum temperature yesterday: 55 °F (at 11:20 PM)
Average temperature yesterday: 59 °F

High & Low Weather Summary for the Past Weeks

 TemperatureHumidityPressure
High77 °F (May 22, 1:20 PM)100% (May 23, 11:20 PM)30.15 "Hg (May 23, 11:20 PM)
Low39 °F (May 16, 8:20 AM)38% (May 22, 12:20 PM)29.59 "Hg (May 29, 7:20 PM)
Average56 °F78%29.93 "Hg
* Reported May 16 8:20 AM — May 31 8:20 AM, Schwäbisch Hall, Weather by CustomWeather, © 2016

Note: Actual official high and low records may vary slightly from our data, if they occured in-between our weather recording intervals... More about our weather records

Advertising

Schwäbisch Hall Weather History for the Previous 24 Hours

Scroll right to see more
 ConditionsComfort  
Time TempWeatherWind HumidityBarometerVisibility
8:20 AM
Tue, May 31
59 °FPassing clouds.7 mph77%29.83 "HgN/A
7:20 AM55 °FPassing clouds.7 mph82%29.83 "HgN/A
6:20 AM52 °FPassing clouds.6 mph88%29.83 "HgN/A
5:20 AM50 °FPassing clouds.3 mph94%29.80 "HgN/A
4:20 AM52 °FPassing clouds.7 mph88%29.80 "HgN/A
3:20 AM54 °FPassing clouds.5 mph88%29.80 "HgN/A
2:20 AM52 °FPassing clouds.3 mph88%29.80 "HgN/A
1:20 AM54 °FPassing clouds.5 mph82%29.80 "HgN/A
12:20 AM55 °FPassing clouds.7 mph77%29.77 "HgN/A
11:20 PM
Mon, May 30
55 °FPassing clouds.8 mph82%29.77 "HgN/A
10:20 PM57 °FPassing clouds.6 mph77%29.77 "HgN/A
9:20 PM59 °FPassing clouds.9 mph72%29.77 "HgN/A
8:20 PM61 °FPassing clouds.8 mph72%29.74 "HgN/A
7:20 PM63 °FScattered clouds.8 mph73%29.74 "HgN/A
6:20 PM63 °FPartly sunny.15 mph73%29.71 "HgN/A
5:20 PM64 °FScattered clouds.13 mph73%29.71 "HgN/A
4:20 PM64 °FScattered clouds.12 mph73%29.71 "HgN/A
3:20 PM63 °FScattered showers. Partly sunny.7 mph83%29.71 "HgN/A
2:20 PM57 °FSprinkles. Broken clouds.9 mph88%29.71 "HgN/A
1:20 PM63 °FSprinkles. Partly sunny.14 mph77%29.68 "HgN/A
12:20 PM63 °FPartly sunny.14 mph83%29.68 "HgN/A
11:20 AM61 °FPartly sunny.8 mph83%29.68 "HgN/A
10:20 AM59 °FPartly sunny.8 mph88%29.65 "HgN/A
9:50 AM57 °FMostly cloudy.9 mph94%29.65 "Hg5 mi
9:20 AM57 °FDrizzle. Mostly cloudy.13 mph94%29.65 "Hg3 mi
Weather by CustomWeather, © 2016

See weather overviewHow to use our weather pages